Weather History for Le Mars, IA

Change the Weather History Date:

Wednesday, February 27, 2013

  Actual Average Record
Temperature  
Mean Temperature 29 °F -  
Max Temperature 37 °F 41 °F 62 °F (1976)
Min Temperature 21 °F 23 °F -7 °F (2014)
Degree Days  
Heating Degree Days 36    
Moisture  
Dew Point 20 °F    
Average Humidity 76    
Maximum Humidity 93    
Minimum Humidity 56    
Precipitation  
Precipitation 0.00 in - - ()
Sea Level Pressure  
Sea Level Pressure 29.99 in    
Wind  
Wind Speed 12 mph (NNW)    
Max Wind Speed 18 mph    
Max Gust Speed 29 mph    
Visibility 8 miles    
Events      
Averages and records for this station are not official NWS values.
T = Trace of Precipitation, MM = Missing Value Source: NWS Daily Summary

Daily Weather History Graph

Daily Weather History Graph

Search for Another Location

Airport:

Trip Planner

Search our weather history database for the weather conditions in past years. The results will help you decide how hot, cold, wet, or windy it might be!

Date:

Astronomy

Feb. 27, 2013 Rise Set
Actual Time 7:03 AM CST 6:12 PM CST
Civil Twilight 6:34 AM CST 6:40 PM CST
Nautical Twilight 6:02 AM CST 7:13 PM CST
Astronomical Twilight 5:29 AM CST 7:46 PM CST
Moon 8:39 PM CST (2/27) 7:35 AM CST (2/27)
Length of Visible Light 12h 05m
Length of Day
11h 08m
Waning Gibbous, 96% of the Moon is Illuminated
Feb 27
Waning Gibbous
Mar 4
Last Quarter
Mar 11
New
Mar 19
First Quarter
Mar 27
Full

Hourly Weather History & Observations

Time (CST) Temp. Windchill Dew Point Humidity Pressure Visibility Wind Dir Wind Speed Gust Speed Precip Events Conditions
12:15 AM 24.8 °F 14.6 °F 21.2 °F 86% 29.93 in 5.0 mi NNW 10.4 mph - N/A   Overcast
12:35 AM 24.8 °F 16.1 °F 21.2 °F 86% 29.93 in 5.0 mi North 8.1 mph - N/A   Overcast
12:55 AM 24.8 °F 16.9 °F 21.2 °F 86% 29.93 in 5.0 mi North 6.9 mph - N/A   Overcast
1:15 AM 24.8 °F 16.9 °F 21.2 °F 86% 29.93 in 5.0 mi North 6.9 mph - N/A   Overcast
1:35 AM 24.8 °F 14.6 °F 21.2 °F 86% 29.92 in 5.0 mi North 10.4 mph - N/A   Scattered Clouds
1:55 AM 24.8 °F 14.0 °F 21.2 °F 86% 29.93 in 4.0 mi NNW 11.5 mph - N/A   Clear
2:15 AM 24.8 °F 14.6 °F 19.4 °F 80% 29.92 in 4.0 mi NNW 10.4 mph - N/A   Clear
2:35 AM 23.0 °F 13.1 °F 19.4 °F 86% 29.92 in 4.0 mi NNW 9.2 mph - N/A   Clear
2:55 AM 23.0 °F 12.4 °F 19.4 °F 86% 29.91 in 4.0 mi NNW 10.4 mph - N/A   Clear
3:15 AM 21.2 °F 9.5 °F 19.4 °F 93% 29.91 in 4.0 mi NNW 11.5 mph - N/A   Clear
3:35 AM 21.2 °F 8.9 °F 17.6 °F 86% 29.90 in 4.0 mi NNW 12.7 mph 16.1 mph N/A   Clear
3:55 AM 21.2 °F 13.6 °F 17.6 °F 86% 29.91 in 5.0 mi North 5.8 mph - N/A   Clear
4:15 AM 21.2 °F 10.9 °F 17.6 °F 86% 29.91 in 5.0 mi NNW 9.2 mph - N/A   Clear
4:35 AM 21.2 °F 13.6 °F 17.6 °F 86% 29.92 in 5.0 mi North 5.8 mph - N/A   Clear
4:55 AM 21.2 °F 12.6 °F 17.6 °F 86% 29.92 in 5.0 mi North 6.9 mph - N/A   Clear
5:15 AM 21.2 °F 7.8 °F 17.6 °F 86% 29.91 in 5.0 mi North 15.0 mph - N/A   Clear
5:35 AM 23.0 °F 10.6 °F 17.6 °F 80% 29.92 in 7.0 mi NNW 13.8 mph 21.9 mph N/A   Clear
6:15 AM 23.0 °F 10.6 °F 17.6 °F 80% 29.92 in 7.0 mi NNW 13.8 mph 18.4 mph N/A   Clear
6:35 AM 23.0 °F 13.1 °F 17.6 °F 80% 29.93 in 7.0 mi NNW 9.2 mph - N/A   Clear
6:55 AM 23.0 °F 10.1 °F 17.6 °F 80% 29.93 in 7.0 mi NW 15.0 mph 20.7 mph N/A   Clear
7:15 AM 21.2 °F 10.1 °F 17.6 °F 86% 29.93 in 7.0 mi NNW 10.4 mph - N/A   Clear
7:35 AM 21.2 °F 10.9 °F 17.6 °F 86% 29.95 in 7.0 mi NNW 9.2 mph - N/A   Clear
7:55 AM 24.8 °F 14.0 °F 17.6 °F 74% 29.95 in 7.0 mi NNW 11.5 mph 16.1 mph N/A   Clear
8:15 AM 24.8 °F 13.4 °F 17.6 °F 74% 29.95 in 7.0 mi NNW 12.7 mph - N/A   Clear
8:35 AM 23.0 °F 11.1 °F 17.6 °F 80% 29.95 in 7.0 mi NNW 12.7 mph - N/A   Clear
8:55 AM 24.8 °F 13.4 °F 17.6 °F 74% 29.96 in 10.0 mi NNW 12.7 mph 19.6 mph N/A   Clear
9:15 AM 24.8 °F 13.4 °F 17.6 °F 74% 29.97 in 10.0 mi NNW 12.7 mph 20.7 mph N/A   Clear
9:35 AM 24.8 °F 14.0 °F 17.6 °F 74% 29.97 in 10.0 mi NNW 11.5 mph - N/A   Clear
9:55 AM 26.6 °F 14.7 °F 19.4 °F 74% 29.97 in 10.0 mi NNW 15.0 mph - N/A   Clear
10:15 AM 28.4 °F 17.5 °F 19.4 °F 69% 29.97 in 10.0 mi NNW 13.8 mph - N/A   Clear
10:35 AM 30.2 °F 18.5 °F 19.4 °F 64% 29.98 in 10.0 mi North 17.3 mph 25.3 mph N/A   Clear
10:55 AM 30.2 °F 20.2 °F 21.2 °F 69% 29.98 in 10.0 mi North 12.7 mph 19.6 mph N/A   Clear
11:15 AM 32.0 °F 21.6 °F 19.4 °F 60% 29.98 in 10.0 mi North 15.0 mph 20.7 mph N/A   Clear
11:35 AM 33.8 °F 23.9 °F 21.2 °F 60% 29.99 in 10.0 mi North 15.0 mph - N/A   Clear
11:55 AM 33.8 °F 23.9 °F 21.2 °F 60% 29.98 in 10.0 mi North 15.0 mph - N/A   Clear
12:15 PM 33.8 °F 23.5 °F 21.2 °F 60% 29.98 in 10.0 mi North 16.1 mph 21.9 mph N/A   Clear
12:35 PM 35.6 °F 26.2 °F 21.2 °F 56% 29.98 in 10.0 mi North 15.0 mph 21.9 mph N/A   Clear
12:55 PM 35.6 °F 27.1 °F 23.0 °F 60% 29.98 in 10.0 mi North 12.7 mph 20.7 mph N/A   Clear
1:15 PM 35.6 °F 25.9 °F 23.0 °F 60% 29.98 in 10.0 mi North 16.1 mph 19.6 mph N/A   Clear
1:35 PM 35.6 °F 25.9 °F 23.0 °F 60% 29.99 in 10.0 mi North 16.1 mph 24.2 mph N/A   Clear
1:55 PM 37.4 °F 28.5 °F 23.0 °F 56% 29.99 in 10.0 mi North 15.0 mph 28.8 mph N/A   Clear
2:15 PM 37.4 °F 28.2 °F 23.0 °F 56% 30.00 in 10.0 mi NNW 16.1 mph 21.9 mph N/A   Clear
2:35 PM 33.8 °F 23.2 °F 24.8 °F 70% 30.00 in 10.0 mi NNW 17.3 mph 24.2 mph N/A   Clear
2:55 PM 35.6 °F 25.9 °F 24.8 °F 65% 30.00 in 10.0 mi NW 16.1 mph 25.3 mph N/A   Clear
3:15 PM 33.8 °F 23.5 °F 24.8 °F 70% 30.00 in 10.0 mi NW 16.1 mph 23.0 mph N/A   Clear
3:35 PM 33.8 °F 22.8 °F 24.8 °F 70% 30.00 in 10.0 mi NW 18.4 mph 24.2 mph N/A   Clear
3:55 PM 33.8 °F 23.9 °F 24.8 °F 70% 30.00 in 10.0 mi NNW 15.0 mph 20.7 mph N/A   Clear
4:15 PM 33.8 °F 24.3 °F 24.8 °F 70% 30.01 in 10.0 mi NW 13.8 mph 24.2 mph N/A   Clear
4:35 PM 30.2 °F 18.1 °F 23.0 °F 75% 30.01 in 10.0 mi NW 18.4 mph 24.2 mph N/A   Clear
4:55 PM 30.2 °F 18.1 °F 23.0 °F 75% 30.01 in 10.0 mi NW 18.4 mph 24.2 mph N/A   Clear
5:15 PM 30.2 °F 19.3 °F 21.2 °F 69% 30.02 in 10.0 mi NW 15.0 mph 21.9 mph N/A   Clear
5:35 PM 28.4 °F 16.6 °F 21.2 °F 74% 30.02 in 10.0 mi NW 16.1 mph 25.3 mph N/A   Clear
5:55 PM 28.4 °F 15.8 °F 21.2 °F 74% 30.02 in 10.0 mi NNW 18.4 mph 26.5 mph N/A   Clear
6:15 PM 28.4 °F 17.0 °F 21.2 °F 74% 30.04 in 10.0 mi NNW 15.0 mph - N/A   Clear
6:35 PM 26.6 °F 15.2 °F 21.2 °F 80% 30.04 in 10.0 mi NNW 13.8 mph - N/A   Clear
6:55 PM 26.6 °F 13.8 °F 21.2 °F 80% 30.05 in 10.0 mi NNW 17.3 mph 23.0 mph N/A   Clear
7:15 PM 26.6 °F 14.3 °F 21.2 °F 80% 30.06 in 10.0 mi NNW 16.1 mph 21.9 mph N/A   Clear
7:35 PM 26.6 °F 13.4 °F 21.2 °F 80% 30.06 in 10.0 mi NNW 18.4 mph 25.3 mph N/A   Clear
7:55 PM 26.6 °F 14.3 °F 21.2 °F 80% 30.06 in 10.0 mi NNW 16.1 mph 25.3 mph N/A   Clear
8:15 PM 26.6 °F 14.7 °F 21.2 °F 80% 30.07 in 10.0 mi NNW 15.0 mph 21.9 mph N/A   Scattered Clouds
8:35 PM 24.8 °F 14.0 °F 19.4 °F 80% 30.07 in 10.0 mi NNW 11.5 mph 21.9 mph N/A   Clear
8:55 PM 24.8 °F 14.6 °F 19.4 °F 80% 30.07 in 10.0 mi NNW 10.4 mph - N/A   Clear
9:15 PM 24.8 °F 13.4 °F 19.4 °F 80% 30.07 in 10.0 mi NNW 12.7 mph - N/A   Clear
9:35 PM 24.8 °F 16.1 °F 19.4 °F 80% 30.09 in 10.0 mi North 8.1 mph - N/A   Mostly Cloudy
9:55 PM 26.6 °F 16.2 °F 21.2 °F 80% 30.09 in 10.0 mi North 11.5 mph - N/A   Overcast
10:35 PM 26.6 °F 16.8 °F 21.2 °F 80% 30.08 in 10.0 mi North 10.4 mph 16.1 mph N/A   Overcast
10:55 PM 26.6 °F 16.8 °F 21.2 °F 80% 30.08 in 10.0 mi North 10.4 mph - N/A   Overcast
11:15 PM 26.6 °F 18.2 °F 21.2 °F 80% 30.09 in 10.0 mi North 8.1 mph 17.3 mph N/A   Overcast
11:35 PM 26.6 °F 17.5 °F 21.2 °F 80% 30.09 in 10.0 mi North 9.2 mph - N/A   Overcast